TGL9204 LFKC-LGSM

Flight info

Callsign TGL9204
Flight time N/A
Altitude 39000
Route CAPCO A3 MIRSA DCT BEGUD DCT MEDAL DCT AMSOR DCT TOPNO DCT GOKEL DCT PINDO UM603 TSL UN130 MES UL609 PIPEN H59 ORMOS
Aircraft A20N/M-SDE2E3FGHIRWXY/LB1

Departure

Time 2026-04-25 10:14
Airport Calvi Sainte Catherine Airport (LFKC)

Arrival

Time N/A
Airport Samos Airport (LGSM)
Time Latitude Longitude Altitude Speed Heading
2026-04-25 09:54 42.52467 8.79081 211 ft 0 kts 300°
2026-04-25 10:04 42.52465 8.79085 211 ft 2 kts 300°
2026-04-25 10:04 42.52458 8.79102 212 ft 2 kts 300°
2026-04-25 10:04 42.52452 8.79115 212 ft 0 kts 300°
2026-04-25 10:04 42.52448 8.79133 213 ft 2 kts 265°
2026-04-25 10:05 42.52453 8.79152 212 ft 2 kts 229°
2026-04-25 10:05 42.52465 8.79163 211 ft 2 kts 193°
2026-04-25 10:05 42.52472 8.79164 211 ft 1 kts 173°
2026-04-25 10:05 42.52477 8.79164 210 ft 0 kts 179°
2026-04-25 10:09 42.52483 8.79164 210 ft 1 kts 179°
2026-04-25 10:09 42.52490 8.79163 209 ft 0 kts 179°
2026-04-25 10:10 42.52488 8.79164 209 ft 0 kts 178°
2026-04-25 10:10 42.52470 8.79163 211 ft 4 kts 181°
2026-04-25 10:10 42.52449 8.79170 212 ft 4 kts 148°
2026-04-25 10:10 42.52433 8.79241 213 ft 10 kts 95°
2026-04-25 10:11 42.52390 8.79302 216 ft 8 kts 174°
2026-04-25 10:11 42.52336 8.79301 219 ft 7 kts 180°
2026-04-25 10:11 42.52267 8.79301 225 ft 12 kts 181°
2026-04-25 10:11 42.52197 8.79299 230 ft 7 kts 180°
2026-04-25 10:12 42.52158 8.79248 232 ft 11 kts 256°
2026-04-25 10:12 42.52111 8.79177 234 ft 9 kts 189°
2026-04-25 10:12 42.52044 8.79259 237 ft 10 kts 85°
2026-04-25 10:13 42.52106 8.79302 234 ft 12 kts
2026-04-25 10:13 42.52294 8.79303 222 ft 60 kts 360°
2026-04-25 10:13 42.52965 8.79299 177 ft 131 kts
2026-04-25 10:13 42.54046 8.79311 379 ft 163 kts
2026-04-25 10:14 42.55165 8.79329 1026 ft 164 kts
2026-04-25 10:14 42.56305 8.79342 1716 ft 166 kts
2026-04-25 10:14 42.57460 8.79344 2308 ft 174 kts
2026-04-25 10:14 42.58712 8.79326 2776 ft 190 kts
2026-04-25 10:15 42.60084 8.79310 3257 ft 207 kts
2026-04-25 10:15 42.61595 8.79504 3646 ft 231 kts 21°
2026-04-25 10:15 42.62936 8.80808 4182 ft 250 kts 53°
2026-04-25 10:15 42.63757 8.82950 4798 ft 267 kts 66°
2026-04-25 10:16 42.64745 8.85103 5545 ft 275 kts 50°
2026-04-25 10:16 42.66018 8.87062 6424 ft 278 kts 47°
2026-04-25 10:16 42.67332 8.88986 7191 ft 283 kts 46°
2026-04-25 10:16 42.68698 8.90950 7992 ft 288 kts 46°
2026-04-25 10:17 42.70076 8.92923 8800 ft 291 kts 46°
2026-04-25 10:17 42.71478 8.94928 9584 ft 295 kts 46°
2026-04-25 10:17 42.72888 8.96944 10338 ft 298 kts 46°
2026-04-25 10:17 42.74333 8.99011 10874 ft 310 kts 46°
2026-04-25 10:18 42.74902 8.99825 11017 ft 317 kts 46°
2026-04-25 10:18 42.74983 8.99941 11036 ft 317 kts 46°
2026-04-25 10:18 42.75064 9.00058 11056 ft 318 kts 46°
2026-04-25 10:18 42.76485 9.02090 11397 ft 334 kts 46°
2026-04-25 10:19 42.78104 9.04409 12022 ft 342 kts 46°
2026-04-25 10:19 42.79745 9.06762 12789 ft 344 kts 46°
2026-04-25 10:19 42.81382 9.09111 13524 ft 348 kts 46°
2026-04-25 10:19 42.83065 9.11528 14239 ft 351 kts 46°
2026-04-25 10:20 42.84738 9.13934 14926 ft 355 kts 46°
2026-04-25 10:20 42.86443 9.16387 15607 ft 359 kts 46°
2026-04-25 10:20 42.88107 9.18912 16266 ft 363 kts 54°
2026-04-25 10:20 42.89144 9.22014 16866 ft 365 kts 78°
2026-04-25 10:21 42.89235 9.25451 17511 ft 367 kts 98°
2026-04-25 10:21 42.88756 9.28864 18193 ft 370 kts 102°
2026-04-25 10:21 42.88240 9.32306 18835 ft 373 kts 102°
2026-04-25 10:21 42.87729 9.35803 19471 ft 377 kts 101°
2026-04-25 10:22 42.87233 9.39300 20066 ft 378 kts 101°
2026-04-25 10:22 42.86907 9.41624 20436 ft 381 kts 101°
2026-04-25 10:22 42.86256 9.46340 21211 ft 386 kts 101°
2026-04-25 10:22 42.85761 9.49939 21799 ft 389 kts 101°
2026-04-25 10:23 42.85257 9.53593 22377 ft 392 kts 101°
2026-04-25 10:23 42.84753 9.57236 22937 ft 396 kts 101°
2026-04-25 10:23 42.84244 9.60903 23484 ft 399 kts 101°
2026-04-25 10:23 42.83726 9.64611 24021 ft 402 kts 101°
2026-04-25 10:24 42.83196 9.68396 24555 ft 405 kts 102°
2026-04-25 10:24 42.82614 9.72111 25062 ft 408 kts 105°
2026-04-25 10:24 42.81774 9.75822 25568 ft 410 kts 110°
2026-04-25 10:24 42.80693 9.79370 26057 ft 412 kts 116°
2026-04-25 10:25 42.79440 9.82885 26536 ft 415 kts 117°
2026-04-25 10:25 42.78093 9.86383 27008 ft 417 kts 120°
2026-04-25 10:25 42.76607 9.89746 27462 ft 420 kts 123°
2026-04-25 10:25 42.75025 9.93097 27911 ft 422 kts 123°
2026-04-25 10:26 42.73436 9.96452 28350 ft 424 kts 123°
2026-04-25 10:26 42.71827 9.99848 28785 ft 426 kts 123°
2026-04-25 10:26 42.70231 10.03217 29202 ft 429 kts 123°
2026-04-25 10:26 42.68624 10.06609 29629 ft 431 kts 122°
2026-04-25 10:27 42.66999 10.10038 30050 ft 433 kts 122°
2026-04-25 10:27 42.65354 10.13507 30468 ft 435 kts 122°
2026-04-25 10:27 42.63730 10.16928 30848 ft 437 kts 122°
2026-04-25 10:27 42.62063 10.20437 31221 ft 439 kts 122°
2026-04-25 10:28 42.60419 10.23894 31655 ft 438 kts 122°
2026-04-25 10:28 42.58780 10.27336 32137 ft 436 kts 122°
2026-04-25 10:28 42.57137 10.30783 32604 ft 434 kts 122°
2026-04-25 10:28 42.55504 10.34203 33044 ft 433 kts 122°
2026-04-25 10:29 42.53864 10.37636 33472 ft 431 kts 122°
2026-04-25 10:29 42.52251 10.41007 33887 ft 430 kts 122°
2026-04-25 10:29 42.50622 10.44409 34299 ft 428 kts 122°
2026-04-25 10:29 42.49006 10.47780 34702 ft 426 kts 122°
2026-04-25 10:30 42.47401 10.51124 35097 ft 425 kts 122°
2026-04-25 10:30 42.46328 10.53357 35357 ft 423 kts 122°
2026-04-25 10:30 42.44194 10.57792 35831 ft 421 kts 122°
2026-04-25 10:30 42.42609 10.61086 36140 ft 420 kts 122°
2026-04-25 10:31 42.41017 10.64389 36436 ft 420 kts 122°
2026-04-25 10:31 42.39416 10.67706 36726 ft 419 kts 123°
2026-04-25 10:31 42.37819 10.71013 36990 ft 419 kts 123°
2026-04-25 10:31 42.36249 10.74259 37209 ft 418 kts 123°
2026-04-25 10:32 42.34654 10.77552 37415 ft 419 kts 123°
2026-04-25 10:32 42.33047 10.80864 37634 ft 419 kts 123°
2026-04-25 10:32 42.31452 10.84150 37839 ft 419 kts 123°
2026-04-25 10:32 42.29871 10.87404 38032 ft 419 kts 123°
2026-04-25 10:33 42.28256 10.90725 38226 ft 419 kts 123°
2026-04-25 10:33 42.26665 10.93994 38411 ft 419 kts 122°
2026-04-25 10:33 42.25073 10.97262 38575 ft 418 kts 122°
2026-04-25 10:33 42.23477 11.00531 38718 ft 419 kts 122°
2026-04-25 10:34 42.21882 11.03797 38878 ft 419 kts 122°
2026-04-25 10:34 42.20272 11.07090 39046 ft 419 kts 122°
2026-04-25 10:34 42.18674 11.10355 39148 ft 419 kts 122°
2026-04-25 10:35 42.15460 11.16915 39188 ft 419 kts 122°
2026-04-25 10:35 42.12253 11.23446 39166 ft 419 kts 122°
2026-04-25 10:36 42.09031 11.29993 39134 ft 418 kts 122°
2026-04-25 10:36 42.06127 11.36714 39122 ft 417 kts 116°
2026-04-25 10:37 42.03798 11.43859 39114 ft 416 kts 109°
2026-04-25 10:37 42.01987 11.51211 39111 ft 416 kts 107°
2026-04-25 10:38 42.00231 11.58568 39115 ft 415 kts 107°
2026-04-25 10:38 41.98463 11.65937 39117 ft 415 kts 107°
2026-04-25 10:39 41.96692 11.73285 39116 ft 414 kts 107°
2026-04-25 10:39 41.94910 11.80653 39120 ft 414 kts 107°
2026-04-25 10:40 41.93139 11.87952 39127 ft 413 kts 107°
2026-04-25 10:40 41.91346 11.95313 39130 ft 413 kts 107°
2026-04-25 10:41 41.89567 12.02599 39129 ft 413 kts 107°
2026-04-25 10:41 41.87785 12.09876 39126 ft 413 kts 107°
2026-04-25 10:42 41.85982 12.17209 39124 ft 413 kts 107°
2026-04-25 10:42 41.84190 12.24475 39123 ft 413 kts 107°
2026-04-25 10:43 41.82378 12.31800 39122 ft 413 kts 107°
2026-04-25 10:43 41.80566 12.39104 39122 ft 413 kts 107°
2026-04-25 10:44 41.78754 12.46385 39123 ft 413 kts 107°
2026-04-25 10:44 41.76937 12.53664 39125 ft 413 kts 107°
2026-04-25 10:45 41.75124 12.60905 39134 ft 413 kts 107°
2026-04-25 10:45 41.73284 12.68226 39151 ft 413 kts 108°
2026-04-25 10:46 41.71461 12.75461 39117 ft 413 kts 108°
2026-04-25 10:46 41.69626 12.82725 39127 ft 413 kts 108°
2026-04-25 10:47 41.67780 12.90001 39139 ft 413 kts 108°
2026-04-25 10:47 41.65945 12.97213 39140 ft 412 kts 108°
2026-04-25 10:48 41.64090 13.04485 39140 ft 413 kts 108°
2026-04-25 10:48 41.62241 13.11714 39140 ft 413 kts 108°
2026-04-25 10:49 41.60372 13.18995 39139 ft 413 kts 108°
2026-04-25 10:49 41.58501 13.26263 39137 ft 413 kts 108°
2026-04-25 10:50 41.56637 13.33483 39139 ft 413 kts 108°
2026-04-25 10:50 41.54759 13.40737 39142 ft 413 kts 107°
2026-04-25 10:51 41.52871 13.48006 39150 ft 413 kts 107°
2026-04-25 10:51 41.51001 13.55183 39153 ft 412 kts 107°
2026-04-25 10:52 41.49112 13.62416 39143 ft 412 kts 107°
2026-04-25 10:52 41.47228 13.69606 39132 ft 412 kts 108°
2026-04-25 10:53 41.45336 13.76749 39123 ft 401 kts 108°
2026-04-25 10:53 41.43517 13.83614 39126 ft 388 kts 108°
2026-04-25 10:54 41.41746 13.90338 38508 ft 391 kts 107°
2026-04-25 10:54 41.41143 13.92650 38031 ft 397 kts 107°
2026-04-25 10:54 41.39936 13.97275 37166 ft 399 kts 107°
2026-04-25 10:54 41.39027 14.00733 36557 ft 398 kts 107°
2026-04-25 10:55 41.38114 14.04190 35916 ft 398 kts 107°
2026-04-25 10:55 41.37200 14.07636 35178 ft 402 kts 107°
2026-04-25 10:55 41.36253 14.11199 34026 ft 415 kts 107°
2026-04-25 10:55 41.35285 14.14836 32722 ft 430 kts 107°
2026-04-25 10:56 41.34282 14.18590 31406 ft 442 kts 108°
2026-04-25 10:56 41.33248 14.22443 30340 ft 447 kts 108°
2026-04-25 10:56 41.32202 14.26335 29174 ft 447 kts 108°
2026-04-25 10:56 41.31163 14.30197 27943 ft 450 kts 108°
2026-04-25 10:57 41.30101 14.34142 26578 ft 455 kts 108°
2026-04-25 10:57 41.29044 14.38061 25082 ft 461 kts 108°
2026-04-25 10:57 41.27965 14.42053 23578 ft 464 kts 108°
2026-04-25 10:57 41.26888 14.46029 22576 ft 455 kts 108°
2026-04-25 10:58 41.25832 14.49914 21692 ft 441 kts 108°
2026-04-25 10:58 41.24812 14.53668 20299 ft 429 kts 108°
2026-04-25 10:58 41.23826 14.57293 18552 ft 423 kts 108°
2026-04-25 10:58 41.22848 14.60881 16893 ft 414 kts 108°
2026-04-25 10:59 41.21888 14.64400 15275 ft 404 kts 108°
2026-04-25 10:59 41.20955 14.67814 13697 ft 395 kts 108°
2026-04-25 10:59 41.20039 14.71163 12049 ft 387 kts 108°
2026-04-25 10:59 41.19146 14.74429 10499 ft 378 kts 108°
2026-04-25 11:00 41.18267 14.77640 9090 ft 366 kts 109°
2026-04-25 11:00 41.17229 14.80583 8097 ft 349 kts 127°
2026-04-25 11:00 41.15493 14.82620 7444 ft 326 kts 151°
2026-04-25 11:00 41.13485 14.83686 7148 ft 297 kts 168°
2026-04-25 11:01 41.11531 14.83958 7111 ft 265 kts 184°
2026-04-25 11:01 41.09748 14.83581 7125 ft 254 kts 196°
2026-04-25 11:01 41.08167 14.82745 7107 ft 239 kts 210°
2026-04-25 11:01 41.06820 14.81480 7097 ft 234 kts 221°
2026-04-25 11:02 41.05735 14.79917 6883 ft 232 kts 234°
2026-04-25 11:02 41.04959 14.78074 6897 ft 230 kts 248°
2026-04-25 11:02 41.04421 14.76038 7043 ft 235 kts 252°
2026-04-25 11:02 41.03910 14.73957 7099 ft 237 kts 252°
2026-04-25 11:03 41.03408 14.71873 7131 ft 238 kts 252°
2026-04-25 11:03 41.02900 14.69811 7099 ft 236 kts 252°
2026-04-25 11:03 41.02384 14.67775 6628 ft 236 kts 252°
2026-04-25 11:03 41.01854 14.65667 5907 ft 244 kts 253°
2026-04-25 11:04 41.01329 14.63553 5545 ft 240 kts 253°
2026-04-25 11:04 41.00818 14.61491 5217 ft 233 kts 253°
2026-04-25 11:04 41.00330 14.59527 5152 ft 218 kts 253°
2026-04-25 11:04 41.00018 14.58264 5133 ft 211 kts 255°
2026-04-25 11:05 40.99433 14.55800 5128 ft 210 kts 252°
2026-04-25 11:05 40.98970 14.53989 4938 ft 209 kts 251°
2026-04-25 11:05 40.98499 14.52182 4713 ft 200 kts 252°
2026-04-25 11:05 40.98116 14.50519 4475 ft 183 kts 255°
2026-04-25 11:06 40.97715 14.48992 4207 ft 170 kts 249°
2026-04-25 11:06 40.97226 14.47631 3965 ft 158 kts 245°
2026-04-25 11:06 40.96713 14.46361 3579 ft 157 kts 243°
2026-04-25 11:06 40.96167 14.45113 3175 ft 157 kts 241°
2026-04-25 11:07 40.95604 14.43888 2820 ft 152 kts 239°
2026-04-25 11:07 40.95069 14.42733 2591 ft 147 kts 240°
2026-04-25 11:07 40.94526 14.41569 2387 ft 147 kts 237°
2026-04-25 11:07 40.93985 14.40441 2184 ft 146 kts 237°
2026-04-25 11:08 40.93443 14.39311 1978 ft 146 kts 237°
2026-04-25 11:08 40.92900 14.38169 1769 ft 146 kts 238°
2026-04-25 11:08 40.92361 14.37034 1556 ft 146 kts 237°
2026-04-25 11:08 40.91826 14.35906 1340 ft 145 kts 237°
2026-04-25 11:09 40.91293 14.34781 1125 ft 143 kts 236°
2026-04-25 11:09 40.90768 14.33657 910 ft 142 kts 236°
2026-04-25 11:09 40.90254 14.32552 703 ft 141 kts 236°
2026-04-25 11:09 40.89732 14.31443 502 ft 140 kts 235°
2026-04-25 11:10 40.89220 14.30372 306 ft 138 kts 235°
2026-04-25 11:10 40.88882 14.29660 257 ft 132 kts 235°
2026-04-25 11:10 40.88374 14.28596 275 ft 49 kts 236°
2026-04-25 11:10 40.88226 14.28418 283 ft 21 kts 208°
2026-04-25 11:11 40.88110 14.28336 288 ft 12 kts 207°
2026-04-25 11:11 40.88059 14.28367 289 ft 8 kts 102°
2026-04-25 11:11 40.88030 14.28424 291 ft 6 kts 150°
2026-04-25 11:11 40.87994 14.28431 292 ft 4 kts 185°
2026-04-25 11:12 40.87960 14.28424 293 ft 5 kts 190°
2026-04-25 11:12 40.87924 14.28416 295 ft 5 kts 188°
2026-04-25 11:12 40.87882 14.28407 295 ft 7 kts 188°
2026-04-25 11:12 40.87864 14.28403 296 ft 1 kts 186°
2026-04-25 11:13 40.87859 14.28402 296 ft 0 kts 186°